Location: Newark
(54.0919°N, 2.6681°W)
Time: 00:34:16
(UTC+00:00)

SO-50 - Visible Passes

Search period start: 10 December 2019 00:00
Search period end: 20 December 2019 00:00
Orbit: 594 x 692 km, 64.6° (Epoch: 09 December)

Date Brightness Start Highest point End Pass type
(mag) Time Alt. Az. Time Alt. Az. Time Alt. Az.
10 Dec ? 16:32:07 10° NW 16:36:03 24° N 16:39:55 10° NE visible
10 Dec ? 18:13:19 10° NW 18:17:45 34° NNE 18:17:52 34° NNE visible
10 Dec ? 19:53:51 10° NW 19:55:31 21° NW 19:55:31 21° NW visible
11 Dec ? 16:57:39 10° NW 17:01:41 25° N 17:04:48 14° ENE visible
11 Dec ? 18:38:25 10° NW 18:42:27 46° N 18:42:27 46° N visible
11 Dec ? 20:19:06 10° NW 20:20:05 16° WNW 20:20:05 16° WNW visible
12 Dec ? 17:22:56 10° NW 17:27:14 30° NNE 17:29:26 21° ENE visible
12 Dec ? 19:03:30 10° NW 19:07:05 50° NW 19:07:05 50° NW visible
12 Dec ? 20:44:41 10° WNW 20:44:44 10° WNW 20:44:44 10° WNW visible
13 Dec ? 17:48:05 10° NW 17:52:41 42° NNE 17:54:11 32° ENE visible
13 Dec ? 19:28:40 10° NW 19:31:49 38° WNW 19:31:49 38° WNW visible
14 Dec ? 16:32:32 10° NW 16:36:42 27° NNE 16:40:45 10° ENE visible
14 Dec ? 18:13:10 10° NW 18:17:57 66° NE 18:19:01 49° E visible
14 Dec ? 19:54:04 10° WNW 19:56:41 24° W 19:56:41 24° W visible
15 Dec ? 16:57:44 10° NW 17:02:12 36° NNE 17:06:22 11° E visible
15 Dec ? 18:38:17 10° NW 18:43:03 73° SW 18:44:02 53° SSE visible
15 Dec ? 20:20:07 10° WNW 20:21:43 14° W 20:21:43 14° W visible
16 Dec ? 17:22:50 10° NW 17:27:33 53° NE 17:31:36 13° ESE visible
16 Dec ? 19:03:33 10° NW 19:07:57 38° WSW 19:09:18 31° SSW visible
17 Dec ? 17:47:55 10° NW 17:52:44 87° NE 17:57:11 11° SE visible
17 Dec ? 19:29:12 10° WNW 19:32:37 20° WSW 19:34:55 14° SSW visible
18 Dec ? 16:32:30 10° NW 16:37:07 43° NNE 16:41:35 10° ESE visible
18 Dec ? 18:13:06 10° NW 18:17:43 51° SW 18:22:10 10° SSE visible
19 Dec ? 16:57:35 10° NW 17:02:22 69° NE 17:07:00 10° SE visible
19 Dec ? 18:38:32 10° WNW 18:42:29 27° WSW 18:46:20 10° S visible
